Location: Newark
(45.8667°N, 9.7333°E)
Time: 15:08:38
(UTC+00:00)

A-11 Canister half - Pass Details

Date: 25 January 2020
Orbit: 1517 x 1683 km, 47.2° (Epoch: 23 February)

Event Time Altitude Azimuth Distance (km) Brightness Sun altitude
Rises 02:51:05 0° 280° (W) 4,683 - -41.5°
Reaches altitude 10° 02:54:07 10° 281° (W) 3,691 - -41.0°
Maximum altitude 03:03:26 88° 13° (NNE) 1,523 - -39.4°
Exits shadow 03:04:35 73° 95° (E) 1,579 8.9 -39.2°
Drops below altitude 10° 03:12:47 10° 103° (ESE) 3,700 11.6 -37.8°
Sets 03:15:50 0° 104° (ESE) 4,696 12.3 -37.3°
